Mount Isa, Australia

12:13 AM AEST on February 23, 2017 (GMT +1000)
Mount Isa

Weather History for YBMA - December, 2013

Change the Weather History Date:

Saturday, December 7, 2013

  Actual Average Record
Temperature  
Mean Temperature 86 °F -  
Max Temperature 102 °F 99 °F - ()
Min Temperature 70 °F 74 °F - ()
Cooling Degree Days 21    
Growing Degree Days 36 (Base 50)    
Moisture  
Dew Point 29 °F    
Average Humidity 13    
Maximum Humidity 36    
Minimum Humidity 4    
Precipitation  
Precipitation 0.00 in 0.09 in - ()
Sea Level Pressure  
Sea Level Pressure 29.88 in    
Wind  
Wind Speed 8 mph ()    
Max Wind Speed 16 mph    
Max Gust Speed -    
Visibility 6.2 miles    
Events      
T = Trace of Precipitation, MM = Missing Value Source: Averaged Metar Reports

Daily Weather History Graph

Daily Weather History Graph

Search for Another Location

Airport or City:

Trip Planner

Search our weather history database for the weather conditions in past years. The results will help you decide how hot, cold, wet, or windy it might be!

Date:

Astronomy

Dec. 07, 2013 Rise Set
Actual Time 5:53 AM AEST 7:13 PM AEST
Civil Twilight 5:28 AM AEST 7:38 PM AEST
Nautical Twilight 4:59 AM AEST 8:07 PM AEST
Astronomical Twilight 4:29 AM AEST 8:37 PM AEST
Moon 10:05 AM AEST (12/7) 11:08 PM AEST (12/7)
Length of Visible Light 14h 09m
Length of Day
13h 20m
Waxing Crescent, 22% of the Moon is Illuminated
Dec 7
Waxing Crescent
Dec 10
First Quarter
Dec 17
Full
Dec 25
Last Quarter
Jan 1
New

Hourly Weather History & Observations

Time (AEST) Temp. Dew Point Humidity Pressure Visibility Wind Dir Wind Speed Gust Speed Precip Events Conditions
12:00 AM 76 °F 29 °F 9% 29.87 in - South 9.2 mph - -  
12:00 AM 77.0 °F 28.4 °F 17% 29.92 in 6.2 mi South 9.2 mph - N/A   Unknown
12:30 AM 75.2 °F 28.4 °F 18% 29.92 in 6.2 mi South 9.2 mph - N/A   Unknown
1:00 AM 75 °F 29 °F 10% 29.84 in - South 9.2 mph - -  
1:00 AM 75.2 °F 28.4 °F 18% 29.92 in 6.2 mi South 9.2 mph - N/A   Unknown
1:30 AM 75.2 °F 28.4 °F 18% 29.92 in 6.2 mi South 11.5 mph - N/A   Unknown
2:00 AM 73.4 °F 28.4 °F 19% 29.92 in 6.2 mi South 11.5 mph - N/A   Unknown
2:30 AM 73.4 °F 30.2 °F 20% 29.92 in 6.2 mi South 10.4 mph - N/A   Unknown
3:00 AM 73 °F 29 °F 11% 29.84 in - South 9.2 mph - -  
3:00 AM 73.4 °F 28.4 °F 19% 29.92 in 6.2 mi South 9.2 mph - N/A   Unknown
3:30 AM 73.4 °F 28.4 °F 19% 29.92 in 6.2 mi South 9.2 mph - N/A   Unknown
4:00 AM 73 °F 27 °F 9% 29.83 in - South 9.2 mph - -  
4:00 AM 73.4 °F 26.6 °F 18% 29.92 in 6.2 mi South 9.2 mph - N/A   Unknown
4:30 AM 73.4 °F 26.6 °F 18% 29.92 in 6.2 mi South 8.1 mph - N/A   Unknown
5:00 AM 71.6 °F 26.6 °F 19% 29.92 in 6.2 mi South 8.1 mph - N/A   Unknown
5:30 AM 71.6 °F 26.6 °F 19% 29.92 in 6.2 mi SSE 8.1 mph - N/A   Unknown
6:00 AM 71 °F 28 °F 11% 29.88 in - SSE 6.9 mph - -  
6:00 AM 71.6 °F 28.4 °F 20% 29.95 in 6.2 mi SSE 6.9 mph - N/A   Unknown
6:30 AM 71.6 °F 30.2 °F 22% 29.95 in 6.2 mi South 6.9 mph - N/A   Unknown
7:00 AM 74 °F 28 °F 10% 29.88 in - South 9.2 mph - -  
7:00 AM 73.4 °F 28.4 °F 19% 29.95 in 6.2 mi South 9.2 mph - N/A   Unknown
7:30 AM 77.0 °F 30.2 °F 18% 29.98 in 6.2 mi South 6.9 mph - N/A   Unknown
8:00 AM 82.4 °F 24.8 °F 12% 29.98 in 6.2 mi SSE 9.2 mph - N/A   Unknown
8:30 AM 84.2 °F 21.2 °F 10% 29.98 in 6.2 mi SE 11.5 mph - N/A   Unknown
9:00 AM 85 °F 20 °F 4% 29.91 in - ESE 10.4 mph - -  
9:00 AM 86.0 °F 19.4 °F 9% 29.98 in 6.2 mi ESE 10.4 mph - N/A   Unknown
9:30 AM 87.8 °F 19.4 °F 8% 29.98 in 6.2 mi ESE 12.7 mph - N/A   Unknown
10:00 AM 90 °F 17 °F 4% 29.89 in - East 16.1 mph - -  
10:00 AM 89.6 °F 17.6 °F 7% 29.98 in 6.2 mi East 16.1 mph - N/A   Unknown
10:30 AM 91.4 °F 17.6 °F 7% 29.95 in 6.2 mi East 13.8 mph - N/A   Unknown
11:00 AM 93.2 °F 15.8 °F 6% 29.95 in 6.2 mi East 13.8 mph - N/A   Unknown
11:30 AM 93.2 °F 14.0 °F 5% 29.92 in 6.2 mi ESE 10.4 mph - N/A   Unknown
12:00 PM 94 °F 18 °F 4% 29.85 in - East 11.5 mph - -  
12:00 PM 95.0 °F 17.6 °F 6% 29.92 in 6.2 mi East 11.5 mph - N/A   Unknown
12:30 PM 96.8 °F 15.8 °F 5% 29.89 in 6.2 mi ESE 9.2 mph - N/A   Unknown
1:00 PM 97 °F 24 °F 4% 29.81 in - ESE 8.1 mph - -  
1:00 PM 96.8 °F 23.0 °F 7% 29.89 in 6.2 mi ESE 8.1 mph - N/A   Unknown
1:30 PM 98.6 °F 19.4 °F 6% 29.86 in 6.2 mi East 8.1 mph - N/A   Unknown
2:00 PM 100.4 °F 24.8 °F 7% 29.86 in 6.2 mi SE 6.9 mph - N/A   Unknown
2:30 PM 100.4 °F 24.8 °F 7% 29.86 in 6.2 mi East 6.9 mph - N/A   Unknown
3:00 PM 100 °F 25 °F 4% 29.78 in - WNW 5.8 mph - -  
3:00 PM 100.4 °F 24.8 °F 7% 29.83 in 6.2 mi WNW 5.8 mph - N/A   Unknown
3:30 PM 100.4 °F 24.8 °F 7% 29.83 in 6.2 mi East 8.1 mph - N/A   Unknown
4:00 PM 101 °F 32 °F 4% 29.74 in - ESE 6.9 mph - -  
4:00 PM 102.2 °F 32.0 °F 9% 29.83 in 6.2 mi ESE 6.9 mph - N/A   Unknown
4:30 PM 100.4 °F 26.6 °F 7% 29.80 in 6.2 mi SSW 6.9 mph - N/A   Unknown
5:00 PM 102.2 °F 33.8 °F 9% 29.80 in 6.2 mi NE 6.9 mph - N/A   Unknown
5:30 PM 102.2 °F 30.2 °F 8% 29.80 in 6.2 mi East 5.8 mph - N/A   Unknown
6:00 PM 100 °F 35 °F 5% 29.75 in - NNE 6.9 mph - -  
6:00 PM 100.4 °F 35.6 °F 11% 29.83 in 6.2 mi NNE 6.9 mph - N/A   Unknown
6:30 PM 100.4 °F 32.0 °F 9% 29.83 in 6.2 mi SSE 6.9 mph - N/A   Unknown
7:00 PM 97 °F 34 °F 5% 29.76 in - South 5.8 mph - -  
7:00 PM 96.8 °F 33.8 °F 11% 29.83 in 6.2 mi South 5.8 mph - N/A   Unknown
7:30 PM 91.4 °F 44.6 °F 20% 29.83 in 6.2 mi SSW 5.8 mph - N/A   Unknown
8:00 PM 82.4 °F 42.8 °F 25% 29.86 in 6.2 mi NNW 4.6 mph - N/A   Unknown
8:30 PM 82.4 °F 44.6 °F 26% 29.86 in 6.2 mi WNW 3.5 mph - N/A   Unknown
9:00 PM 80 °F 47 °F 21% 29.80 in - SSW 2.3 mph - -  
9:00 PM 78.8 °F 46.4 °F 32% 29.86 in 6.2 mi SSW 2.3 mph - N/A   Unknown
9:30 PM 84.2 °F 46.4 °F 27% 29.86 in 6.2 mi South 6.9 mph - N/A   Unknown
10:00 PM 79 °F 51 °F 26% 29.79 in - South 5.8 mph - -  
10:00 PM 78.8 °F 50.0 °F 36% 29.86 in 6.2 mi South 5.8 mph - N/A   Unknown
10:30 PM 82.4 °F 44.6 °F 26% 29.86 in 6.2 mi South 6.9 mph - N/A   Unknown
11:00 PM 86.0 °F 33.8 °F 15% 29.86 in 6.2 mi South 9.2 mph - N/A   Unknown
11:30 PM 86.0 °F 28.4 °F 12% 29.86 in 6.2 mi South 9.2 mph - N/A   Unknown